BEIDOU-3 G1 (C59)

Last updated on Jan. 19, 2020, 4:38 a.m. UTC

1 43683U 18085A   20018.80661887 -.00000247  00000-0  00000+0 0  9994
2 43683   2.0988 262.0465 0000667  71.5209 218.9916  1.00274046  4588
UTC
Height (km)
Latitude
Longitude
Inclination
Orbital Period
UTC large
Height (km)
Speed (km/s)
/
Latitude / Longitude
Inclination (degrees)
Orbital Period (minutes)
Azimuth
Elevation
Range (km)
Doppler Factor
iOS Compass Heading
iOS Angle

Next 30 passes for location: Hong Kong

Rise time Rise Azimuth (degrees) Set time Set Azimuth (degrees) Duration Max altitude (degrees)

No matching passes for this satellites